Location: Fours
(44.3167°N, 6.7000°E)
Time: 12:58:46
(UTC+00:00)

Meteor 1-11 Rocket - Pass Details

Date: 30 November 2020
Orbit: 831 x 915 km, 81.2° (Epoch: 25 January)

Event Time Altitude Azimuth Distance (km) Brightness Sun altitude
Rises 17:38:54 0° 356° (N) 3,471 6.8 -17.9°
Reaches altitude 10° 17:41:32 10° 5° (N) 2,542 6.0 -18.4°
Maximum altitude 17:46:52 37° 72° (ENE) 1,352 4.2 -19.3°
Enters shadow 17:48:50 29° 111° (ESE) 1,572 4.6 -19.7°
Exits shadow 17:54:13 - 145° (SE) 3,258 6.5 -20.6°
Sets 17:54:57 0° 147° (SSE) 3,521 6.7 -20.7°
